Time,TemperatureF,DewpointF,PressureIn,WindDirection,WindDirectionDegrees,WindSpeedMPH,WindSpeedGustMPH,Humidity,HourlyPrecipIn,Conditions,Clouds,dailyrainin,SoftwareType,DateUTC
2013-05-17 00:08:00,61.6,50.0,29.50,SSE,160,2.0,6.0,65,0.00,,,0.00,weatherlink.com 1.10,2013-05-17 06:08:00,
2013-05-17 00:23:00,61.1,50.0,29.50,NNW,328,4.0,6.0,66,0.00,,,0.00,weatherlink.com 1.10,2013-05-17 06:23:00,
2013-05-17 00:38:00,60.8,50.0,29.51,SSW,200,0.0,4.0,67,0.00,,,0.00,weatherlink.com 1.10,2013-05-17 06:38:00,
2013-05-17 00:53:00,61.0,49.0,29.52,ENE,69,5.0,7.0,66,0.00,,,0.00,weatherlink.com 1.10,2013-05-17 06:53:00,
2013-05-17 01:08:00,61.0,49.0,29.52,SSE,166,4.0,5.0,66,0.00,,,0.00,weatherlink.com 1.10,2013-05-17 07:08:00,
2013-05-17 01:23:00,60.9,50.0,29.51,South,171,2.0,9.0,67,0.00,,,0.00,weatherlink.com 1.10,2013-05-17 07:23:00,
2013-05-17 01:38:00,61.0,50.0,29.52,South,183,2.0,10.0,68,0.00,,,0.00,weatherlink.com 1.10,2013-05-17 07:38:00,
2013-05-17 01:53:00,61.0,51.0,29.52,SE,133,0.0,5.0,69,0.00,,,0.00,weatherlink.com 1.10,2013-05-17 07:53:00,
2013-05-17 02:08:00,60.6,51.0,29.52,North,349,0.0,2.0,71,0.00,,,0.00,weatherlink.com 1.10,2013-05-17 08:08:00,
2013-05-17 02:23:00,60.1,51.0,29.52,North,349,0.0,1.0,73,0.00,,,0.00,weatherlink.com 1.10,2013-05-17 08:23:00,
2013-05-17 02:38:00,59.5,52.0,29.52,NW,323,2.0,5.0,75,0.00,,,0.00,weatherlink.com 1.10,2013-05-17 08:38:00,
2013-05-17 02:53:00,59.2,51.0,29.48,West,278,2.0,10.0,75,0.00,,,0.00,weatherlink.com 1.10,2013-05-17 08:53:00,
2013-05-17 03:08:00,59.1,50.0,29.48,North,5,4.0,8.0,73,0.00,,,0.00,weatherlink.com 1.10,2013-05-17 09:08:00,
2013-05-17 03:23:00,58.6,51.0,29.50,East,96,0.0,8.0,75,0.00,,,0.00,weatherlink.com 1.10,2013-05-17 09:23:00,
2013-05-17 03:39:00,57.3,50.0,29.49,ESE,109,2.0,4.0,77,0.00,,,0.00,weatherlink.com 1.10,2013-05-17 09:39:00,
2013-05-17 03:54:00,56.5,50.0,29.49,SSE,159,1.0,5.0,79,0.00,,,0.00,weatherlink.com 1.10,2013-05-17 09:54:00,
2013-05-17 04:09:00,56.3,50.0,29.49,SE,139,2.0,5.0,80,0.00,,,0.00,weatherlink.com 1.10,2013-05-17 10:09:00,
2013-05-17 04:24:00,55.9,50.0,29.50,SSE,154,0.0,5.0,80,0.00,,,0.00,weatherlink.com 1.10,2013-05-17 10:24:00,
2013-05-17 04:39:00,55.5,49.0,29.50,SE,130,0.0,4.0,79,0.00,,,0.00,weatherlink.com 1.10,2013-05-17 10:39:00,
2013-05-17 04:54:00,54.5,49.0,29.50,SE,128,1.0,1.0,81,0.00,,,0.00,weatherlink.com 1.10,2013-05-17 10:54:00,
2013-05-17 05:09:00,53.9,49.0,29.50,ESE,108,0.0,3.0,83,0.00,,,0.00,weatherlink.com 1.10,2013-05-17 11:09:00,
2013-05-17 05:24:00,53.8,49.0,29.50,NNE,33,1.0,3.0,84,0.00,,,0.00,weatherlink.com 1.10,2013-05-17 11:24:00,
2013-05-17 05:39:00,53.3,48.0,29.50,NNE,13,0.0,2.0,83,0.00,,,0.00,weatherlink.com 1.10,2013-05-17 11:39:00,
2013-05-17 05:54:00,53.6,49.0,29.51,NNW,333,1.0,4.0,83,0.00,,,0.00,weatherlink.com 1.10,2013-05-17 11:54:00,
2013-05-17 06:09:00,54.6,49.0,29.52,SSE,160,2.0,4.0,80,0.00,,,0.00,weatherlink.com 1.10,2013-05-17 12:09:00,
2013-05-17 06:24:00,56.2,49.0,29.52,South,188,3.0,6.0,78,0.00,,,0.00,weatherlink.com 1.10,2013-05-17 12:24:00,
2013-05-17 06:39:00,57.4,50.0,29.52,SSE,165,1.0,3.0,77,0.00,,,0.00,weatherlink.com 1.10,2013-05-17 12:39:00,
2013-05-17 06:54:00,59.7,51.0,29.52,SE,138,0.0,1.0,72,0.00,,,0.00,weatherlink.com 1.10,2013-05-17 12:54:00,
2013-05-17 07:09:00,61.4,51.0,29.52,WNW,299,1.0,3.0,69,0.00,,,0.00,weatherlink.com 1.10,2013-05-17 13:09:00,
2013-05-17 07:24:00,62.6,51.0,29.52,SSE,160,1.0,3.0,66,0.00,,,0.00,weatherlink.com 1.10,2013-05-17 13:24:00,
2013-05-17 07:39:00,64.3,51.0,29.52,SSE,154,0.0,3.0,62,0.00,,,0.00,weatherlink.com 1.10,2013-05-17 13:39:00,
2013-05-17 07:54:00,66.0,51.0,29.52,WSW,252,3.0,5.0,59,0.00,,,0.00,weatherlink.com 1.10,2013-05-17 13:54:00,
2013-05-17 08:09:00,67.6,51.0,29.52,South,177,2.0,4.0,55,0.00,,,0.00,weatherlink.com 1.10,2013-05-17 14:09:00,
2013-05-17 08:24:00,68.4,52.0,29.52,SE,131,3.0,5.0,56,0.00,,,0.00,weatherlink.com 1.10,2013-05-17 14:24:00,
2013-05-17 08:39:00,69.7,52.0,29.51,SE,143,2.0,5.0,53,0.00,,,0.00,weatherlink.com 1.10,2013-05-17 14:39:00,
2013-05-17 08:54:00,70.4,51.0,29.51,South,173,1.0,5.0,51,0.00,,,0.00,weatherlink.com 1.10,2013-05-17 14:54:00,
2013-05-17 09:09:00,73.3,52.0,29.50,NNW,332,3.0,5.0,47,0.00,,,0.00,weatherlink.com 1.10,2013-05-17 15:09:00,
2013-05-17 09:24:00,76.1,52.0,29.49,South,176,1.0,5.0,43,0.00,,,0.00,weatherlink.com 1.10,2013-05-17 15:24:00,
2013-05-17 09:40:00,77.7,52.0,29.49,South,179,1.0,6.0,41,0.00,,,0.00,weatherlink.com 1.10,2013-05-17 15:40:00,
2013-05-17 09:55:00,78.7,52.0,29.49,ESE,107,4.0,6.0,39,0.00,,,0.00,weatherlink.com 1.10,2013-05-17 15:55:00,
2013-05-17 10:10:00,79.2,51.0,29.49,NW,314,3.0,7.0,38,0.00,,,0.00,weatherlink.com 1.10,2013-05-17 16:10:00,
2013-05-17 10:25:00,78.8,50.0,29.49,SE,134,2.0,6.0,37,0.00,,,0.00,weatherlink.com 1.10,2013-05-17 16:25:00,
2013-05-17 10:40:00,81.5,53.0,29.49,NNE,22,2.0,5.0,37,0.00,,,0.00,weatherlink.com 1.10,2013-05-17 16:40:00,
2013-05-17 10:55:00,80.4,52.0,29.48,SSE,168,3.0,6.0,38,0.00,,,0.00,weatherlink.com 1.10,2013-05-17 16:55:00,
2013-05-17 11:10:00,81.4,52.0,29.47,SSW,196,1.0,9.0,36,0.00,,,0.00,weatherlink.com 1.10,2013-05-17 17:10:00,
2013-05-17 11:25:00,81.5,53.0,29.46,ENE,77,9.0,11.0,38,0.00,,,0.00,weatherlink.com 1.10,2013-05-17 17:25:00,
2013-05-17 11:40:00,83.2,53.0,29.47,East,86,5.0,9.0,35,0.00,,,0.00,weatherlink.com 1.10,2013-05-17 17:40:00,
2013-05-17 11:55:00,85.2,54.0,29.45,South,172,2.0,8.0,34,0.00,,,0.00,weatherlink.com 1.10,2013-05-17 17:55:00,
2013-05-17 12:10:00,85.9,53.0,29.45,SSW,201,1.0,8.0,32,0.00,,,0.00,weatherlink.com 1.10,2013-05-17 18:10:00,
2013-05-17 12:25:00,87.9,54.0,29.44,SE,128,1.0,7.0,31,0.00,,,0.00,weatherlink.com 1.10,2013-05-17 18:25:00,
2013-05-17 12:40:00,89.4,54.0,29.43,SE,133,2.0,8.0,30,0.00,,,0.00,weatherlink.com 1.10,2013-05-17 18:40:00,
2013-05-17 12:55:00,92.3,55.0,29.42,SSE,155,1.0,12.0,28,0.00,,,0.00,weatherlink.com 1.10,2013-05-17 18:55:00,
2013-05-17 13:10:00,93.3,51.0,29.41,NW,316,1.0,7.0,24,0.00,,,0.00,weatherlink.com 1.10,2013-05-17 19:10:00,
2013-05-17 13:25:00,93.0,42.0,29.40,WSW,245,3.0,6.0,17,0.00,,,0.00,weatherlink.com 1.10,2013-05-17 19:25:00,
2013-05-17 13:40:00,92.2,44.0,29.39,NW,316,1.0,8.0,19,0.00,,,0.00,weatherlink.com 1.10,2013-05-17 19:40:00,
2013-05-17 13:55:00,96.5,43.0,29.38,WNW,285,2.0,5.0,16,0.00,,,0.00,weatherlink.com 1.10,2013-05-17 19:55:00,
2013-05-17 14:10:00,92.4,43.0,29.38,SW,217,1.0,10.0,18,0.00,,,0.00,weatherlink.com 1.10,2013-05-17 20:10:00,
2013-05-17 14:25:00,92.8,40.0,29.38,West,279,2.0,4.0,16,0.00,,,0.00,weatherlink.com 1.10,2013-05-17 20:25:00,
2013-05-17 14:40:00,92.5,39.0,29.37,SSW,210,4.0,6.0,15,0.00,,,0.00,weatherlink.com 1.10,2013-05-17 20:40:00,
2013-05-17 14:55:00,92.5,40.0,29.36,WSW,257,3.0,8.0,16,0.00,,,0.00,weatherlink.com 1.10,2013-05-17 20:55:00,
2013-05-17 15:10:00,94.0,34.0,29.36,South,179,1.0,10.0,12,0.00,,,0.00,weatherlink.com 1.10,2013-05-17 21:10:00,
2013-05-17 15:25:00,92.9,31.0,29.36,SW,217,2.0,11.0,11,0.00,,,0.00,weatherlink.com 1.10,2013-05-17 21:25:00,
2013-05-17 15:41:00,97.2,34.0,29.34,South,188,1.0,5.0,11,0.00,,,0.00,weatherlink.com 1.10,2013-05-17 21:41:00,
2013-05-17 15:56:00,95.7,33.0,29.34,South,179,3.0,8.0,11,0.00,,,0.00,weatherlink.com 1.10,2013-05-17 21:56:00,
2013-05-17 16:11:00,94.8,33.0,29.33,South,188,0.0,7.0,11,0.00,,,0.00,weatherlink.com 1.10,2013-05-17 22:11:00,
2013-05-17 16:26:00,93.5,29.0,29.32,SSW,203,3.0,11.0,10,0.00,,,0.00,weatherlink.com 1.10,2013-05-17 22:26:00,
2013-05-17 16:41:00,92.2,28.0,29.31,SSW,208,4.0,8.0,10,0.00,,,0.00,weatherlink.com 1.10,2013-05-17 22:41:00,
2013-05-17 16:56:00,90.4,29.0,29.32,SW,219,3.0,6.0,11,0.00,,,0.00,weatherlink.com 1.10,2013-05-17 22:56:00,
2013-05-17 17:11:00,90.0,29.0,29.31,SSW,195,4.0,11.0,11,0.00,,,0.00,weatherlink.com 1.10,2013-05-17 23:11:00,
2013-05-17 17:26:00,91.3,30.0,29.31,SSW,205,5.0,10.0,11,0.00,,,0.00,weatherlink.com 1.10,2013-05-17 23:26:00,
2013-05-17 17:41:00,89.8,31.0,29.31,SSE,167,3.0,13.0,12,0.00,,,0.00,weatherlink.com 1.10,2013-05-17 23:41:00,
2013-05-17 17:56:00,89.3,32.0,29.31,WSW,239,6.0,10.0,13,0.00,,,0.00,weatherlink.com 1.10,2013-05-17 23:56:00,
2013-05-17 18:11:00,86.6,32.0,29.30,South,184,3.0,11.0,14,0.00,,,0.00,weatherlink.com 1.10,2013-05-18 00:11:00,
2013-05-17 18:26:00,85.0,34.0,29.31,SSW,207,2.0,7.0,16,0.00,,,0.00,weatherlink.com 1.10,2013-05-18 00:26:00,
2013-05-17 18:41:00,84.3,35.0,29.31,SSW,197,2.0,4.0,17,0.00,,,0.00,weatherlink.com 1.10,2013-05-18 00:41:00,
2013-05-17 18:56:00,85.1,37.0,29.31,SSW,203,2.0,3.0,18,0.00,,,0.00,weatherlink.com 1.10,2013-05-18 00:56:00,
2013-05-17 19:11:00,83.5,38.0,29.31,SW,217,2.0,4.0,20,0.00,,,0.00,weatherlink.com 1.10,2013-05-18 01:11:00,
2013-05-17 19:26:00,81.2,39.0,29.31,SSW,192,4.0,6.0,22,0.00,,,0.00,weatherlink.com 1.10,2013-05-18 01:26:00,
2013-05-17 19:41:00,79.6,38.0,29.31,SSW,194,2.0,6.0,22,0.00,,,0.00,weatherlink.com 1.10,2013-05-18 01:41:00,
2013-05-17 19:56:00,78.1,36.0,29.32,SW,224,2.0,8.0,22,0.00,,,0.00,weatherlink.com 1.10,2013-05-18 01:56:00,
2013-05-17 20:11:00,79.7,35.0,29.33,West,269,3.0,6.0,20,0.00,,,0.00,weatherlink.com 1.10,2013-05-18 02:11:00,
2013-05-17 20:26:00,79.0,38.0,29.33,SSW,198,1.0,5.0,23,0.00,,,0.00,weatherlink.com 1.10,2013-05-18 02:26:00,
2013-05-17 20:41:00,76.2,39.0,29.34,WNW,294,0.0,6.0,26,0.00,,,0.00,weatherlink.com 1.10,2013-05-18 02:41:00,
2013-05-17 20:56:00,76.0,39.0,29.35,NW,304,0.0,2.0,26,0.00,,,0.00,weatherlink.com 1.10,2013-05-18 02:56:00,
2013-05-17 21:11:00,71.2,42.0,29.37,NNE,27,7.0,12.0,35,0.00,,,0.00,weatherlink.com 1.10,2013-05-18 03:11:00,
2013-05-17 21:26:00,70.7,47.0,29.37,NNE,20,2.0,14.0,43,0.00,,,0.00,weatherlink.com 1.10,2013-05-18 03:26:00,
2013-05-17 21:41:00,69.6,48.0,29.37,WNW,290,3.0,9.0,47,0.00,,,0.00,weatherlink.com 1.10,2013-05-18 03:41:00,
2013-05-17 21:56:00,68.3,49.0,29.37,WSW,240,3.0,5.0,50,0.00,,,0.00,weatherlink.com 1.10,2013-05-18 03:56:00,
2013-05-17 22:11:00,67.1,49.0,29.37,NE,41,3.0,6.0,52,0.00,,,0.00,weatherlink.com 1.10,2013-05-18 04:11:00,
2013-05-17 22:26:00,66.9,49.0,29.36,NNW,334,0.0,4.0,53,0.00,,,0.00,weatherlink.com 1.10,2013-05-18 04:26:00,
2013-05-17 22:41:00,65.8,49.0,29.36,SSW,210,0.0,2.0,54,0.00,,,0.00,weatherlink.com 1.10,2013-05-18 04:41:00,
2013-05-17 22:56:00,65.1,47.0,29.37,West,264,2.0,3.0,53,0.00,,,0.00,weatherlink.com 1.10,2013-05-18 04:56:00,
2013-05-17 23:11:00,63.2,49.0,29.41,SW,221,0.0,7.0,61,0.00,,,0.00,weatherlink.com 1.10,2013-05-18 05:11:00,
2013-05-17 23:26:00,64.2,50.0,29.39,SSW,208,2.0,9.0,60,0.00,,,0.00,weatherlink.com 1.10,2013-05-18 05:26:00,
2013-05-17 23:41:00,65.3,49.0,29.39,SSE,153,1.0,8.0,56,0.00,,,0.00,weatherlink.com 1.10,2013-05-18 05:41:00,
2013-05-17 23:56:00,64.9,49.0,29.42,NNW,333,2.0,6.0,57,0.00,,,0.00,weatherlink.com 1.10,2013-05-18 05:56:00,